Simultaneous Nadir Overpasses (SNOs) Predictions

Prediction of SNOs between NOAA-21 and PACE Satellite Orbit:

Table of predicted SNOs for the next 14.0 days since TLE Epoch: 8/10/2024
Index Date (NOAA-21) Time (NOAA-21) Lat,Lon (NOAA-21) SZA (NOAA-21 ) Date (PACE) Time (PACE) Lat,Lon (PACE) SZA (PACE ) Distance(km) Time Diff (sec)
1 08/11/2024 11:28:13 -79.86, 150.36 112.86 08/11/2024 11:28:38 -79.85, 150.46 112.89 2.11 25
2 08/11/2024 12:18:51 79.64, -40.33 66.76 08/11/2024 12:17:42 79.64, -40.27 66.78 1.43 69
3 08/13/2024 15:54:37 -79.78, 84.46 112.35 08/13/2024 15:54:23 -79.78, 84.51 112.35 1.02 14
4 08/15/2024 19:30:22 79.90,-150.55 68.52 08/15/2024 19:31:03 79.90,-150.50 68.49 1.07 41
5 08/15/2024 20:21:00 -79.69, 18.77 111.87 08/15/2024 20:20:06 -79.68, 18.79 111.85 0.59 54
6 08/17/2024 23:56:45 79.81, 143.71 69.03 08/17/2024 23:56:45 79.81, 143.76 69.02 1.13 0
7 08/20/2024 03:32:28 -79.87, -90.82 110.17 08/20/2024 03:33:21 -79.88, -90.93 110.18 2.34 53
8 08/20/2024 04:23:08 79.73, 77.89 69.57 08/20/2024 04:22:26 79.72, 77.98 69.58 1.97 42



Historial Predications of SNOs between NOAA-21 and PACE
